Time,TemperatureF,DewpointF,PressureIn,WindDirection,WindDirectionDegrees,WindSpeedMPH,WindSpeedGustMPH,Humidity,HourlyPrecipIn,Conditions,Clouds,dailyrainin,SoftwareType,DateUTC
2013-09-14 00:14:00,51.0,47.0,30.07,NNE,15,0.0,3.0,85,0.00,,,0.19,,2013-09-14 04:14:00,
2013-09-14 00:24:00,51.0,46.0,30.07,NNE,13,1.0,4.0,83,0.00,,,0.19,,2013-09-14 04:24:00,
2013-09-14 00:43:00,51.0,46.0,30.07,North,355,0.0,6.0,83,0.00,,,0.19,,2013-09-14 04:43:00,
2013-09-14 00:54:00,51.0,46.0,30.07,NNW,338,1.0,8.0,83,0.00,,,0.19,,2013-09-14 04:54:00,
2013-09-14 01:13:00,51.0,46.0,30.07,NNW,346,2.0,4.0,82,0.00,,,0.19,,2013-09-14 05:13:00,
2013-09-14 01:22:00,51.0,46.0,30.07,NW,307,0.0,6.0,84,0.00,,,0.19,,2013-09-14 05:22:00,
2013-09-14 01:43:00,51.0,47.0,30.07,WNW,292,0.0,4.0,87,0.00,,,0.19,,2013-09-14 05:43:00,
2013-09-14 01:52:00,50.0,47.0,30.07,WNW,296,1.0,4.0,89,0.00,,,0.19,,2013-09-14 05:52:00,
2013-09-14 02:12:00,50.0,47.0,30.07,WNW,285,2.0,9.0,89,0.00,,,0.19,,2013-09-14 06:12:00,
2013-09-14 02:22:00,50.0,47.0,30.07,NW,304,3.0,6.0,89,0.00,,,0.19,,2013-09-14 06:22:00,
2013-09-14 02:42:00,50.0,47.0,30.07,West,280,3.0,7.0,89,0.00,,,0.19,,2013-09-14 06:42:00,
2013-09-14 02:52:00,50.0,47.0,30.08,NW,306,1.0,9.0,88,0.00,,,0.19,,2013-09-14 06:52:00,
2013-09-14 03:12:00,50.0,46.0,30.08,WNW,300,0.0,5.0,87,0.00,,,0.19,,2013-09-14 07:12:00,
2013-09-14 03:22:00,50.0,47.0,30.09,WNW,295,2.0,5.0,88,0.00,,,0.19,,2013-09-14 07:22:00,
2013-09-14 03:42:00,50.0,47.0,30.09,WNW,289,1.0,8.0,88,0.00,,,0.19,,2013-09-14 07:42:00,
2013-09-14 03:52:00,50.0,47.0,30.09,WNW,299,3.0,6.0,88,0.00,,,0.19,,2013-09-14 07:52:00,
2013-09-14 04:12:00,50.0,47.0,30.09,WNW,300,2.0,5.0,88,0.00,,,0.19,,2013-09-14 08:12:00,
2013-09-14 04:22:00,50.0,47.0,30.09,WNW,294,1.0,5.0,88,0.00,,,0.19,,2013-09-14 08:22:00,
2013-09-14 04:42:00,50.0,47.0,30.09,WNW,294,1.0,5.0,88,0.00,,,0.19,,2013-09-14 08:42:00,
2013-09-14 04:52:00,50.0,46.0,30.10,WNW,299,0.0,5.0,87,0.00,,,0.19,,2013-09-14 08:52:00,
2013-09-14 05:12:00,50.0,46.0,30.10,WNW,297,3.0,8.0,87,0.00,,,0.19,,2013-09-14 09:12:00,
2013-09-14 05:22:00,50.0,46.0,30.10,WNW,289,1.0,8.0,86,0.00,,,0.19,,2013-09-14 09:22:00,
2013-09-14 05:43:00,50.0,46.0,30.10,WNW,294,2.0,8.0,86,0.00,,,0.19,,2013-09-14 09:43:00,
2013-09-14 05:53:00,50.0,45.0,30.10,WNW,288,2.0,9.0,83,0.00,,,0.19,,2013-09-14 09:53:00,
2013-09-14 06:12:00,50.0,44.0,30.11,WNW,284,1.0,8.0,81,0.00,,,0.19,,2013-09-14 10:12:00,
2013-09-14 06:23:00,50.0,44.0,30.11,NW,309,3.0,12.0,80,0.00,,,0.15,,2013-09-14 10:23:00,
2013-09-14 06:52:00,50.0,44.0,30.11,NW,305,2.0,9.0,79,0.00,,,0.15,,2013-09-14 10:52:00,
2013-09-14 07:12:00,50.0,44.0,30.12,WNW,294,2.0,7.0,81,0.00,,,0.15,,2013-09-14 11:12:00,
2013-09-14 07:22:00,50.0,45.0,30.13,WNW,294,1.0,4.0,83,0.00,,,0.15,,2013-09-14 11:22:00,
2013-09-14 07:42:00,50.0,45.0,30.14,NW,307,3.0,9.0,84,0.00,,,0.15,,2013-09-14 11:42:00,
2013-09-14 07:52:00,50.0,45.0,30.14,NW,311,2.0,8.0,84,0.00,,,0.15,,2013-09-14 11:52:00,
2013-09-14 08:12:00,50.0,45.0,30.14,WNW,300,2.0,8.0,84,0.00,,,0.13,,2013-09-14 12:12:00,
2013-09-14 08:22:00,50.0,45.0,30.14,NW,316,4.0,11.0,82,0.00,,,0.13,,2013-09-14 12:22:00,
2013-09-14 08:52:00,50.0,44.0,30.16,WNW,282,2.0,10.0,81,0.00,,,0.13,,2013-09-14 12:52:00,
2013-09-14 09:12:00,50.0,44.0,30.16,WSW,256,2.0,10.0,80,0.00,,,0.12,,2013-09-14 13:12:00,
2013-09-14 09:21:00,50.0,44.0,30.16,West,259,4.0,8.0,79,0.00,,,0.12,,2013-09-14 13:21:00,
2013-09-14 09:42:00,50.0,44.0,30.17,SW,234,4.0,11.0,79,0.00,,,0.12,,2013-09-14 13:42:00,
2013-09-14 09:52:00,51.0,45.0,30.17,WNW,294,2.0,10.0,79,0.00,,,0.12,,2013-09-14 13:52:00,
2013-09-14 10:12:00,51.0,45.0,30.18,WNW,297,3.0,10.0,79,0.00,,,0.11,,2013-09-14 14:12:00,
2013-09-14 10:22:00,52.0,45.0,30.18,WNW,302,4.0,10.0,78,0.00,,,0.11,,2013-09-14 14:22:00,
2013-09-14 10:42:00,52.0,45.0,30.18,West,272,2.0,9.0,78,0.00,,,0.11,,2013-09-14 14:42:00,
2013-09-14 10:52:00,52.0,45.0,30.18,WNW,286,3.0,11.0,77,0.00,,,0.11,,2013-09-14 14:52:00,
2013-09-14 11:11:00,52.0,45.0,30.18,WSW,244,3.0,11.0,76,0.00,,,0.10,,2013-09-14 15:11:00,
2013-09-14 11:22:00,53.0,45.0,30.18,WSW,245,3.0,8.0,74,0.00,,,0.10,,2013-09-14 15:22:00,
2013-09-14 11:43:00,53.0,44.0,30.17,WNW,286,4.0,12.0,72,0.00,,,0.10,,2013-09-14 15:43:00,
2013-09-14 11:53:00,54.0,45.0,30.17,NW,304,4.0,13.0,71,0.00,,,0.10,,2013-09-14 15:53:00,
2013-09-14 12:14:00,54.0,44.0,30.18,WNW,300,5.0,13.0,69,0.00,,,0.09,,2013-09-14 16:14:00,
2013-09-14 12:23:00,54.0,44.0,30.18,WNW,283,2.0,9.0,69,0.00,,,0.09,,2013-09-14 16:23:00,
2013-09-14 12:44:00,55.0,45.0,30.17,NW,316,4.0,11.0,68,0.00,,,0.09,,2013-09-14 16:44:00,
2013-09-14 12:54:00,55.0,45.0,30.18,West,262,3.0,9.0,68,0.00,,,0.09,,2013-09-14 16:54:00,
2013-09-14 13:11:00,55.0,44.0,30.18,West,273,4.0,13.0,67,0.00,,,0.08,,2013-09-14 17:11:00,
2013-09-14 13:24:00,56.0,45.0,30.17,WNW,298,0.0,3.0,66,0.00,,,0.08,,2013-09-14 17:24:00,
2013-09-14 13:43:00,56.0,44.0,30.17,WNW,290,6.0,12.0,63,0.00,,,0.08,,2013-09-14 17:43:00,
2013-09-14 13:54:00,58.0,44.0,30.17,WNW,285,3.0,10.0,59,0.00,,,0.08,,2013-09-14 17:54:00,
2013-09-14 14:12:00,57.0,43.0,30.17,NNW,331,5.0,14.0,60,0.00,,,0.08,,2013-09-14 18:12:00,
2013-09-14 14:22:00,57.0,43.0,30.17,NW,313,3.0,9.0,59,0.00,,,0.08,,2013-09-14 18:22:00,
2013-09-14 14:43:00,58.0,44.0,30.16,WSW,254,5.0,11.0,59,0.00,,,0.08,,2013-09-14 18:43:00,
2013-09-14 14:52:00,60.0,43.0,30.16,West,279,2.0,9.0,54,0.00,,,0.08,,2013-09-14 18:52:00,
2013-09-14 15:11:00,61.0,45.0,30.15,North,350,0.0,10.0,55,0.00,,,0.08,,2013-09-14 19:11:00,
2013-09-14 15:22:00,61.0,42.0,30.15,WSW,252,5.0,11.0,50,0.00,,,0.08,,2013-09-14 19:22:00,
2013-09-14 15:42:00,61.0,43.0,30.15,NW,308,2.0,13.0,52,0.00,,,0.08,,2013-09-14 19:42:00,
2013-09-14 15:52:00,62.0,44.0,30.14,NNE,26,0.0,11.0,52,0.00,,,0.08,,2013-09-14 19:52:00,
2013-09-14 16:12:00,62.0,44.0,30.14,West,281,2.0,7.0,52,0.00,,,0.08,,2013-09-14 20:12:00,
2013-09-14 16:22:00,61.0,44.0,30.14,NW,319,2.0,6.0,53,0.00,,,0.08,,2013-09-14 20:22:00,
2013-09-14 16:42:00,62.0,47.0,30.14,NW,313,0.0,7.0,58,0.00,,,0.08,,2013-09-14 20:42:00,
2013-09-14 16:52:00,61.0,45.0,30.14,NW,312,4.0,6.0,55,0.00,,,0.08,,2013-09-14 20:52:00,
2013-09-14 17:12:00,62.0,44.0,30.14,WNW,284,2.0,7.0,51,0.00,,,0.08,,2013-09-14 21:12:00,
2013-09-14 17:22:00,62.0,44.0,30.14,WNW,286,4.0,12.0,51,0.00,,,0.08,,2013-09-14 21:22:00,
2013-09-14 17:44:00,62.0,44.0,30.15,WNW,283,2.0,8.0,52,0.00,,,0.08,,2013-09-14 21:44:00,
2013-09-14 17:54:00,62.0,46.0,30.15,NW,321,4.0,11.0,56,0.00,,,0.08,,2013-09-14 21:54:00,
2013-09-14 18:13:00,61.0,45.0,30.16,WNW,296,7.0,13.0,56,0.00,,,0.08,,2013-09-14 22:13:00,
2013-09-14 18:24:00,60.0,42.0,30.16,NW,310,3.0,15.0,51,0.00,,,0.08,,2013-09-14 22:24:00,
2013-09-14 18:42:00,59.0,38.0,30.16,WNW,290,4.0,12.0,45,0.00,,,0.08,,2013-09-14 22:42:00,
2013-09-14 18:53:00,59.0,38.0,30.15,NW,310,1.0,6.0,46,0.00,,,0.08,,2013-09-14 22:53:00,
2013-09-14 19:12:00,58.0,38.0,30.16,West,259,1.0,7.0,48,0.00,,,0.08,,2013-09-14 23:12:00,
2013-09-14 19:23:00,58.0,40.0,30.16,NW,309,1.0,4.0,51,0.00,,,0.08,,2013-09-14 23:23:00,
2013-09-14 19:42:00,57.0,40.0,30.16,West,273,1.0,4.0,53,0.00,,,0.08,,2013-09-14 23:42:00,
2013-09-14 19:53:00,57.0,41.0,30.16,West,273,0.0,3.0,55,0.00,,,0.08,,2013-09-14 23:53:00,
2013-09-14 20:12:00,56.0,41.0,30.16,West,273,0.0,2.0,58,0.00,,,0.07,,2013-09-15 00:12:00,
2013-09-14 20:22:00,55.0,41.0,30.16,West,273,0.0,0.0,60,0.00,,,0.07,,2013-09-15 00:22:00,
2013-09-14 20:42:00,55.0,42.0,30.16,West,273,0.0,2.0,61,0.00,,,0.07,,2013-09-15 00:42:00,
2013-09-14 20:53:00,54.0,42.0,30.17,West,273,0.0,1.0,64,0.00,,,0.07,,2013-09-15 00:53:00,
2013-09-14 21:11:00,54.0,43.0,30.18,West,261,0.0,4.0,65,0.00,,,0.07,,2013-09-15 01:11:00,
2013-09-14 21:22:00,54.0,43.0,30.18,West,261,0.0,1.0,67,0.00,,,0.07,,2013-09-15 01:22:00,
2013-09-14 21:42:00,53.0,42.0,30.18,West,261,0.0,2.0,65,0.00,,,0.07,,2013-09-15 01:42:00,
2013-09-14 21:52:00,53.0,41.0,30.19,WSW,247,1.0,5.0,63,0.00,,,0.07,,2013-09-15 01:52:00,
2013-09-14 22:12:00,53.0,41.0,30.19,WSW,250,1.0,4.0,63,0.00,,,0.01,,2013-09-15 02:12:00,
2013-09-14 22:22:00,53.0,42.0,30.18,SW,223,0.0,3.0,67,0.00,,,0.01,,2013-09-15 02:22:00,
2013-09-14 22:42:00,52.0,41.0,30.18,WSW,241,1.0,5.0,67,0.00,,,0.01,,2013-09-15 02:42:00,
2013-09-14 22:52:00,53.0,43.0,30.18,SW,230,1.0,5.0,68,0.00,,,0.01,,2013-09-15 02:52:00,
2013-09-14 23:11:00,53.0,43.0,30.19,WSW,240,3.0,8.0,68,0.00,,,0.00,,2013-09-15 03:11:00,
2013-09-14 23:22:00,53.0,43.0,30.19,SW,221,1.0,9.0,68,0.00,,,0.00,,2013-09-15 03:22:00,
2013-09-14 23:44:00,52.0,43.0,30.18,WSW,240,1.0,6.0,71,0.00,,,0.00,,2013-09-15 03:44:00,
2013-09-14 23:55:00,52.0,43.0,30.18,West,266,1.0,6.0,71,0.00,,,0.00,,2013-09-15 03:55:00,